This is the latest recevied weather packets stored in our database for station/object KD8NVS-13. If no packets are shown the sender has not sent any weather packets the latest 10 day(s).
| Time | Temp. | Humidity | Pressure | Rain* | Wind** | Luminosity | Snow |
|---|---|---|---|---|---|---|---|
| 1777913238 | 20° C | 57% | 998.7 hPa | 0 mm | - | 85 W/m² | - |
| 1777912935 | 20° C | 60% | 999 hPa | 0 mm | - | 86 W/m² | - |
| 1777912631 | 20.56° C | 60% | 999 hPa | 0 mm | - | 87 W/m² | - |
| 1777912327 | 20° C | 58% | 999 hPa | 0 mm | - | 85 W/m² | - |
| 1777912022 | 19.44° C | 59% | 999 hPa | 0 mm | - | 84 W/m² | - |
| 1777911719 | 18.89° C | 59% | 999 hPa | 0 mm | - | 83 W/m² | - |
| 1777911415 | 18.89° C | 60% | 999.3 hPa | 0 mm | - | 84 W/m² | - |
| 1777911113 | 18.89° C | 59% | 999.3 hPa | 0 mm | - | 83 W/m² | - |
| 1777910810 | 19.44° C | 59% | 999.3 hPa | 0 mm | - | 83 W/m² | - |
| 1777910508 | 18.89° C | 60% | 999.3 hPa | 0 mm | - | 83 W/m² | - |
| 1777910204 | 18.33° C | 60% | 999.3 hPa | 0 mm | - | 84 W/m² | - |
| 1777909901 | 19.44° C | 60% | 999.3 hPa | 0 mm | - | 83 W/m² | - |
| 1777909597 | 18.89° C | 61% | 999.3 hPa | 0 mm | - | 82 W/m² | - |
| 1777909295 | 18.89° C | 60% | 999.3 hPa | 0 mm | - | 585 W/m² | - |
| 1777908993 | 18.89° C | 60% | 999.3 hPa | 0 mm | - | 759 W/m² | - |
| 1777908691 | 18.89° C | 59% | 999.8 hPa | 0 mm | - | 755 W/m² | - |
| 1777908387 | 18.33° C | 61% | 999.3 hPa | 0 mm | - | 736 W/m² | - |
| 1777908084 | 18.33° C | 59% | 999.3 hPa | 0 mm | - | 722 W/m² | - |
| 1777907780 | 18.33° C | 61% | 999.8 hPa | 0 mm | - | 708 W/m² | - |
| 1777907474 | 17.78° C | 60% | 999.8 hPa | 0 mm | - | 695 W/m² | - |
| 1777907172 | 17.78° C | 62% | 999.3 hPa | 0 mm | - | 682 W/m² | - |
| 1777906869 | 17.78° C | 60% | 999.8 hPa | 0 mm | - | 655 W/m² | - |
| 1777906566 | 17.78° C | 59% | 999.8 hPa | 0 mm | - | 716 W/m² | - |
| 1777906261 | 17.22° C | 61% | 999.8 hPa | 0 mm | - | 689 W/m² | - |
| 1777905958 | 17.22° C | 60% | 999.8 hPa | 0 mm | - | 638 W/m² | - |
* Rain latest hour (hover to see other rain measurements)
** Current wind speed in m/s (hover to see current wind gust speed)